Newark, OH

5:11 AM EDT on August 29, 2016 (GMT -0400)
Newark Heath

Weather History for KVTA - December, 2013

Change the Weather History Date:

Tuesday, December 3, 2013

  Actual Average Record
Temperature  
Mean Temperature 44 °F -  
Max Temperature 54 °F 43 °F 76 °F (1982)
Min Temperature 35 °F 26 °F -3 °F (1976)
Degree Days  
Heating Degree Days 20    
Moisture  
Dew Point 37 °F    
Average Humidity 84    
Maximum Humidity 93    
Minimum Humidity 62    
Precipitation  
Precipitation 0.02 in - - ()
Sea Level Pressure  
Sea Level Pressure 29.86 in    
Wind  
Wind Speed 3 mph (ENE)    
Max Wind Speed 8 mph    
Max Gust Speed -    
Visibility 5 miles    
Events Rain    
Averages and records for this station are not official NWS values.
T = Trace of Precipitation, MM = Missing Value Source: NWS Daily Summary

Daily Weather History Graph

Daily Weather History Graph

Search for Another Location

Airport or City:

Trip Planner

Search our weather history database for the weather conditions in past years. The results will help you decide how hot, cold, wet, or windy it might be!

Date:

Astronomy

Dec. 03, 2013 Rise Set
Actual Time 7:34 AM EST 5:04 PM EST
Civil Twilight 7:04 AM EST 5:34 PM EST
Nautical Twilight 6:30 AM EST 6:08 PM EST
Astronomical Twilight 5:58 AM EST 6:41 PM EST
Moon 8:02 AM EST (12/3) 6:06 PM EST (12/3)
Length of Visible Light 10h 30m
Length of Day
9h 29m
New Moon, 1% of the Moon is Illuminated
Dec 3
New Moon
Dec 9
First Quarter
Dec 17
Full
Dec 25
Last Quarter
Jan 1
New

Hourly Weather History & Observations

Time (EST) Temp. Windchill Dew Point Humidity Pressure Visibility Wind Dir Wind Speed Gust Speed Precip Events Conditions
12:54 AM 37.9 °F 34.4 °F 35.1 °F 89% 29.86 in 2.5 mi ENE 4.6 mph - 0.02 in Rain Light Rain
1:54 AM 37.0 °F 34.5 °F 35.1 °F 93% 29.86 in 2.5 mi NE 3.5 mph - 0.00 in   Overcast
2:54 AM 37.0 °F 33.3 °F 35.1 °F 93% 29.86 in 2.5 mi ENE 4.6 mph - 0.00 in   Overcast
3:11 AM 37.4 °F 34.9 °F 35.6 °F 93% 29.85 in 2.5 mi Variable 3.5 mph - N/A   Overcast
3:54 AM 37.0 °F 34.5 °F 35.1 °F 93% 29.86 in 2.5 mi NE 3.5 mph - N/A   Overcast
4:14 AM 37.4 °F 32.8 °F 35.6 °F 93% 29.83 in 2.5 mi ENE 5.8 mph - N/A   Overcast
4:44 AM 37.4 °F 34.9 °F 33.8 °F 87% 29.84 in 2.5 mi NE 3.5 mph - N/A   Overcast
4:54 AM 37.0 °F - 35.1 °F 93% 29.86 in 2.5 mi Calm Calm - N/A   Overcast
5:54 AM 37.0 °F 34.5 °F 34.0 °F 89% 29.87 in 2.5 mi Variable 3.5 mph - N/A   Overcast
6:41 AM 37.4 °F 34.9 °F 33.8 °F 87% 29.86 in 3.0 mi NE 3.5 mph - N/A   Overcast
6:54 AM 37.0 °F 33.3 °F 34.0 °F 89% 29.88 in 3.0 mi ENE 4.6 mph - N/A   Overcast
7:09 AM 37.4 °F 34.9 °F 33.8 °F 87% 29.85 in 2.5 mi ENE 3.5 mph - N/A   Overcast
7:41 AM 35.6 °F 32.8 °F 33.8 °F 93% 29.84 in 1.2 mi ENE 3.5 mph - N/A   Clear
7:54 AM 36.0 °F - 33.1 °F 89% 29.87 in 1.2 mi Calm Calm - N/A   Clear
8:54 AM 37.9 °F - 35.1 °F 89% 29.89 in 1.8 mi Calm Calm - N/A   Clear
9:10 AM 39.2 °F - 35.6 °F 87% 29.88 in 2.0 mi Calm Calm - N/A   Clear
9:54 AM 41.0 °F 39.0 °F 36.0 °F 82% 29.90 in 2.5 mi Variable 3.5 mph - N/A   Haze
10:12 AM 42.8 °F 41.1 °F 37.4 °F 81% 29.89 in 3.0 mi ENE 3.5 mph - N/A   Haze
10:54 AM 45.0 °F 43.5 °F 39.0 °F 80% 29.89 in 4.0 mi East 3.5 mph - N/A   Haze
11:54 AM 48.9 °F - 39.9 °F 71% 29.88 in 8.0 mi South 5.8 mph - N/A   Clear
12:54 PM 51.1 °F - 39.9 °F 66% 29.88 in 7.0 mi Calm Calm - N/A   Partly Cloudy
1:54 PM 53.1 °F - 42.1 °F 66% 29.86 in 10.0 mi South 8.1 mph - N/A   Clear
2:54 PM 54.0 °F - 41.0 °F 62% 29.85 in 10.0 mi Calm Calm - N/A   Clear
3:54 PM 53.1 °F - 42.1 °F 66% 29.83 in 10.0 mi Calm Calm - N/A   Clear
4:54 PM 52.0 °F - 42.1 °F 69% 29.85 in 10.0 mi Calm Calm - N/A   Clear
5:54 PM 50.0 °F - 41.0 °F 71% 29.87 in 10.0 mi SSE 4.6 mph - N/A   Clear
6:54 PM 45.0 °F - 39.9 °F 82% 29.87 in 10.0 mi Calm Calm - N/A   Clear
7:54 PM 42.1 °F - 39.0 °F 89% 29.88 in 8.0 mi Calm Calm - N/A   Clear
8:54 PM 43.0 °F - 39.0 °F 86% 29.86 in 7.0 mi Calm Calm - N/A   Partly Cloudy
9:54 PM 41.0 °F - 39.0 °F 93% 29.86 in 7.0 mi Calm Calm - N/A   Clear
10:54 PM 39.9 °F - 37.9 °F 93% 29.86 in 4.0 mi Calm Calm - N/A   Clear
11:54 PM 41.0 °F - 37.9 °F 89% 29.87 in 5.0 mi Calm Calm - N/A   Mostly Cloudy